Munising, MI

5:04 AM EST on February 06, 2016 (GMT -0500)
Munising

Weather History for KP53 - September, 2013

Change the Weather History Date:

Monday, September 9, 2013

  Actual Average (KISQ) Record (KISQ)
Temperature  
Mean Temperature 62 °F -  
Max Temperature 71 °F 67 °F - (-1)
Min Temperature 55 °F 49 °F - (-1)
Degree Days  
Heating Degree Days 3    
Growing Degree Days 12 (Base 50)    
Moisture  
Dew Point 60 °F    
Average Humidity 84    
Maximum Humidity 93    
Minimum Humidity 76    
Precipitation  
Precipitation 0.01 in - - ()
Sea Level Pressure  
Sea Level Pressure 29.86 in    
Wind  
Wind Speed 8 mph (SSW)    
Max Wind Speed 14 mph    
Max Gust Speed 24 mph    
Averages and records for this station are not official NWS values.
T = Trace of Precipitation, MM = Missing Value Source: NWS Daily Summary

Daily Weather History Graph

Daily Weather History Graph

Search for Another Location

Airport or City:

Trip Planner

Search our weather history database for the weather conditions in past years. The results will help you decide how hot, cold, wet, or windy it might be!

Date:

Astronomy

Sep. 09, 2013 Rise Set
Actual Time 7:17 AM EDT 8:09 PM EDT
Civil Twilight 6:46 AM EDT 8:39 PM EDT
Nautical Twilight 6:10 AM EDT 9:16 PM EDT
Astronomical Twilight 5:31 AM EDT 9:54 PM EDT
Moon 11:56 AM EDT (9/9) 10:06 PM EDT (9/9)
Length of Visible Light 13h 53m
Length of Day
12h 52m
Waxing Crescent, 19% of the Moon is Illuminated
Sep 9
Waxing Crescent
Sep 12
First Quarter
Sep 19
Full
Sep 26
Last Quarter
Oct 4
New

Hourly Weather History & Observations

Time (EDT) Temp. Dew Point Humidity Pressure Visibility Wind Dir Wind Speed Gust Speed Precip Events Conditions
12:56 AM 55.0 °F 50.0 °F 83% 30.01 in - SW 5.8 mph - N/A   Unknown
1:56 AM 57.0 °F 51.1 °F 81% 30.00 in - SW 4.6 mph - N/A   Unknown
2:56 AM 57.9 °F 53.1 °F 84% 29.99 in - SSW 6.9 mph - N/A   Unknown
3:56 AM 57.9 °F 53.1 °F 84% 29.97 in - South 6.9 mph - N/A   Unknown
4:56 AM 60.1 °F 55.0 °F 83% 29.96 in - SSW 8.1 mph - N/A   Unknown
5:56 AM 60.1 °F 55.0 °F 83% 29.94 in - SSW 6.9 mph - N/A   Unknown
6:56 AM 62.1 °F 57.0 °F 84% 29.93 in - SSW 10.4 mph - N/A   Unknown
7:56 AM 62.1 °F 57.9 °F 86% 29.92 in - SSW 9.2 mph - N/A   Unknown
8:56 AM 63.0 °F 57.9 °F 84% 29.92 in - SSW 8.1 mph - N/A   Unknown
9:56 AM 64.9 °F 57.9 °F 78% 29.91 in - SSW 9.2 mph - N/A   Unknown
10:56 AM 64.9 °F 59.0 °F 81% 29.92 in - SSW 10.4 mph 17.3 mph N/A   Unknown
11:56 AM 68.0 °F 60.1 °F 76% 29.91 in - SSW 8.1 mph 19.6 mph N/A   Unknown
12:56 PM 66.9 °F 61.0 °F 81% 29.90 in - SSW 8.1 mph 16.1 mph N/A   Unknown
1:56 PM 68.0 °F 62.1 °F 81% 29.85 in - SSW 10.4 mph - 0.01 in   Unknown
2:56 PM 69.1 °F 64.0 °F 84% 29.82 in - South 12.7 mph 17.3 mph N/A   Unknown
3:56 PM 68.0 °F 63.0 °F 84% 29.76 in - South 13.8 mph 24.2 mph N/A   Unknown
4:56 PM 68.0 °F 64.0 °F 87% 29.77 in - South 9.2 mph 17.3 mph N/A   Unknown
5:56 PM 68.0 °F 64.0 °F 87% 29.76 in - South 9.2 mph - N/A   Unknown
6:56 PM 69.1 °F 64.0 °F 84% 29.74 in - South 6.9 mph - N/A   Unknown
7:56 PM 69.1 °F 64.9 °F 87% 29.74 in - South 6.9 mph - N/A   Unknown
8:56 PM 69.1 °F 64.9 °F 87% 29.74 in - South 5.8 mph - N/A   Unknown
9:56 PM 69.1 °F 66.0 °F 90% 29.71 in - South 8.1 mph - N/A   Unknown
10:56 PM 68.0 °F 66.0 °F 93% 29.69 in - South 8.1 mph - N/A   Unknown
11:56 PM 68.0 °F 64.9 °F 90% 29.73 in - NE 5.8 mph - N/A   Unknown